Location: Camerons Lookout
(40.9833°S, 175.9333°E)
Time: 18:45:36
(UTC+00:00)

Cosmos 2227 Rocket - Pass Details

Date: 14 January 2026
Orbit: 837 x 845 km, 71.0° (Epoch: 18 February)

Event Time Altitude Azimuth Distance (km) Brightness Sun altitude
Rises 10:47:41 0° 200° (SSW) 3,432 6.8 -23.8°
Reaches altitude 10° 10:50:13 10° 195° (SSW) 2,489 5.7 -24.0°
Maximum altitude 10:55:49 55° 117° (ESE) 1,018 2.6 -24.4°
Enters shadow 10:56:56 47° 78° (ENE) 1,114 2.5 -24.5°
